Time,TemperatureF,DewpointF,PressureIn,WindDirection,WindDirectionDegrees,WindSpeedMPH,WindSpeedGustMPH,Humidity,HourlyPrecipIn,Conditions,Clouds,dailyrainin,SoftwareType,DateUTC
2013-07-21 00:02:00,62.4,57.6,29.92,NE,45,2.0,4.0,84,0.00,,,0.00,meteohub,2013-07-21 07:02:00,
2013-07-21 00:07:00,62.4,57.6,29.92,NE,45,1.0,4.0,84,0.00,,,0.00,meteohub,2013-07-21 07:07:00,
2013-07-21 00:12:00,62.2,57.0,29.92,NE,45,0.0,2.0,83,0.00,,,0.00,meteohub,2013-07-21 07:12:00,
2013-07-21 00:17:00,62.1,57.2,29.92,NE,45,2.0,2.0,84,0.00,,,0.00,meteohub,2013-07-21 07:17:00,
2013-07-21 00:22:00,62.1,57.7,29.93,North,0,2.0,2.0,86,0.00,,,0.00,meteohub,2013-07-21 07:22:00,
2013-07-21 00:27:00,62.4,57.9,29.93,NE,45,2.0,3.0,85,0.00,,,0.00,meteohub,2013-07-21 07:27:00,
2013-07-21 00:32:00,62.6,57.7,29.93,NE,45,4.0,4.0,84,0.00,,,0.00,meteohub,2013-07-21 07:32:00,
2013-07-21 00:37:00,63.0,57.7,29.93,East,90,4.0,4.0,83,0.00,,,0.00,meteohub,2013-07-21 07:37:00,
2013-07-21 00:42:00,62.8,57.2,29.93,East,90,3.0,4.0,82,0.00,,,0.00,meteohub,2013-07-21 07:42:00,
2013-07-21 00:47:00,62.2,56.7,29.93,East,90,2.0,4.0,82,0.00,,,0.00,meteohub,2013-07-21 07:47:00,
2013-07-21 00:52:00,61.5,56.3,29.93,East,90,3.0,4.0,83,0.00,,,0.00,meteohub,2013-07-21 07:52:00,
2013-07-21 00:57:00,61.3,56.8,29.94,East,90,2.0,4.0,85,0.00,,,0.00,meteohub,2013-07-21 07:57:00,
2013-07-21 01:02:00,61.2,56.7,29.93,East,90,1.0,3.0,85,0.00,,,0.00,meteohub,2013-07-21 08:02:00,
2013-07-21 01:07:00,61.0,56.1,29.93,North,0,2.0,3.0,84,0.00,,,0.00,meteohub,2013-07-21 08:07:00,
2013-07-21 01:12:00,60.6,56.5,29.93,North,0,2.0,3.0,86,0.00,,,0.00,meteohub,2013-07-21 08:12:00,
2013-07-21 01:17:00,60.4,56.5,29.93,North,0,2.0,2.0,87,0.00,,,0.00,meteohub,2013-07-21 08:17:00,
2013-07-21 01:22:00,60.4,56.3,29.94,NE,45,2.0,2.0,86,0.00,,,0.00,meteohub,2013-07-21 08:22:00,
2013-07-21 01:27:00,59.9,55.4,29.93,NE,45,1.0,2.0,85,0.00,,,0.00,meteohub,2013-07-21 08:27:00,
2013-07-21 01:32:00,59.5,55.4,29.93,North,0,0.0,2.0,86,0.00,,,0.00,meteohub,2013-07-21 08:32:00,
2013-07-21 01:37:00,59.4,55.4,29.94,North,0,2.0,2.0,87,0.00,,,0.00,meteohub,2013-07-21 08:37:00,
2013-07-21 01:42:00,59.4,55.4,29.93,North,0,0.0,2.0,87,0.00,,,0.00,meteohub,2013-07-21 08:42:00,
2013-07-21 01:47:00,59.4,55.8,29.94,NE,45,3.0,3.0,88,0.00,,,0.00,meteohub,2013-07-21 08:47:00,
2013-07-21 01:52:00,59.4,55.8,29.93,North,0,3.0,3.0,88,0.00,,,0.00,meteohub,2013-07-21 08:52:00,
2013-07-21 01:57:00,59.4,55.8,29.94,NE,45,3.0,3.0,88,0.00,,,0.00,meteohub,2013-07-21 08:57:00,
2013-07-21 02:02:00,59.2,55.4,29.93,NE,45,2.0,3.0,87,0.00,,,0.00,meteohub,2013-07-21 09:02:00,
2013-07-21 02:07:00,59.2,55.6,29.93,NE,45,2.0,3.0,88,0.00,,,0.00,meteohub,2013-07-21 09:07:00,
2013-07-21 02:12:00,59.4,55.4,29.93,East,90,2.0,3.0,87,0.00,,,0.00,meteohub,2013-07-21 09:12:00,
2013-07-21 02:17:00,59.2,55.0,29.94,East,90,1.0,3.0,86,0.00,,,0.00,meteohub,2013-07-21 09:17:00,
2013-07-21 02:22:00,58.8,54.7,29.93,East,90,1.0,3.0,86,0.00,,,0.00,meteohub,2013-07-21 09:22:00,
2013-07-21 02:27:00,58.3,54.5,29.93,NE,45,2.0,2.0,87,0.00,,,0.00,meteohub,2013-07-21 09:27:00,
2013-07-21 02:32:00,57.6,53.8,29.94,NE,45,1.0,2.0,87,0.00,,,0.00,meteohub,2013-07-21 09:32:00,
2013-07-21 02:37:00,57.2,53.6,29.93,NE,45,0.0,2.0,88,0.00,,,0.00,meteohub,2013-07-21 09:37:00,
2013-07-21 02:42:00,56.8,54.0,29.93,North,0,2.0,2.0,90,0.00,,,0.00,meteohub,2013-07-21 09:42:00,
2013-07-21 02:47:00,57.0,54.1,29.94,North,0,2.0,2.0,90,0.00,,,0.00,meteohub,2013-07-21 09:47:00,
2013-07-21 02:52:00,57.0,54.1,29.94,North,0,2.0,2.0,90,0.00,,,0.00,meteohub,2013-07-21 09:52:00,
2013-07-21 02:57:00,57.2,54.3,29.94,NE,45,2.0,2.0,90,0.00,,,0.00,meteohub,2013-07-21 09:57:00,
2013-07-21 03:02:00,57.2,53.6,29.93,NE,45,0.0,2.0,88,0.00,,,0.00,meteohub,2013-07-21 10:02:00,
2013-07-21 03:07:00,57.2,54.0,29.93,NW,315,2.0,2.0,89,0.00,,,0.00,meteohub,2013-07-21 10:07:00,
2013-07-21 03:12:00,57.2,54.3,29.94,NW,315,2.0,2.0,90,0.00,,,0.00,meteohub,2013-07-21 10:12:00,
2013-07-21 03:17:00,57.0,53.8,29.93,North,0,2.0,2.0,89,0.00,,,0.00,meteohub,2013-07-21 10:17:00,
2013-07-21 03:22:00,56.7,53.8,29.93,North,0,2.0,2.0,90,0.00,,,0.00,meteohub,2013-07-21 10:22:00,
2013-07-21 03:27:00,56.3,53.1,29.93,North,0,0.0,2.0,89,0.00,,,0.00,meteohub,2013-07-21 10:27:00,
2013-07-21 03:32:00,55.9,53.4,29.93,West,270,4.0,4.0,91,0.00,,,0.00,meteohub,2013-07-21 10:32:00,
2013-07-21 03:37:00,55.9,53.6,29.93,NW,315,3.0,4.0,92,0.00,,,0.00,meteohub,2013-07-21 10:37:00,
2013-07-21 03:42:00,55.9,54.5,29.93,NW,315,4.0,4.0,95,0.00,,,0.00,meteohub,2013-07-21 10:42:00,
2013-07-21 03:47:00,56.1,54.7,29.93,NW,315,3.0,4.0,95,0.00,,,0.00,meteohub,2013-07-21 10:47:00,
2013-07-21 03:52:00,56.1,54.7,29.93,West,270,4.0,4.0,95,0.00,,,0.00,meteohub,2013-07-21 10:52:00,
2013-07-21 03:57:00,56.1,55.0,29.93,West,270,1.0,4.0,96,0.00,,,0.00,meteohub,2013-07-21 10:57:00,
2013-07-21 04:02:00,55.8,54.7,29.93,West,270,2.0,4.0,96,0.00,,,0.00,meteohub,2013-07-21 11:02:00,
2013-07-21 04:07:00,55.4,54.3,29.93,NW,315,2.0,4.0,96,0.00,,,0.00,meteohub,2013-07-21 11:07:00,
2013-07-21 04:12:00,55.0,53.6,29.92,NE,45,2.0,3.0,95,0.00,,,0.00,meteohub,2013-07-21 11:12:00,
2013-07-21 04:17:00,54.7,53.8,29.92,North,0,2.0,2.0,97,0.00,,,0.00,meteohub,2013-07-21 11:17:00,
2013-07-21 04:22:00,54.5,54.1,29.93,NW,315,3.0,3.0,99,0.00,,,0.00,meteohub,2013-07-21 11:22:00,
2013-07-21 04:27:00,54.3,54.0,29.93,North,0,3.0,3.0,99,0.00,,,0.00,meteohub,2013-07-21 11:27:00,
2013-07-21 04:32:00,54.1,53.8,29.92,NW,315,1.0,3.0,99,0.00,,,0.00,meteohub,2013-07-21 11:32:00,
2013-07-21 04:37:00,54.1,53.8,29.93,NW,315,1.0,3.0,99,0.00,,,0.00,meteohub,2013-07-21 11:37:00,
2013-07-21 04:42:00,53.6,53.2,29.93,SE,135,1.0,3.0,99,0.00,,,0.00,meteohub,2013-07-21 11:42:00,
2013-07-21 04:47:00,53.2,52.7,29.93,SE,135,0.0,2.0,98,0.00,,,0.00,meteohub,2013-07-21 11:47:00,
2013-07-21 04:52:00,52.9,52.3,29.93,SE,135,1.0,2.0,98,0.00,,,0.00,meteohub,2013-07-21 11:52:00,
2013-07-21 04:57:00,52.5,52.0,29.93,SE,135,0.0,1.0,98,0.00,,,0.00,meteohub,2013-07-21 11:57:00,
2013-07-21 05:02:00,52.3,51.8,29.93,SE,135,1.0,1.0,98,0.00,,,0.00,meteohub,2013-07-21 12:02:00,
2013-07-21 05:07:00,52.5,52.2,29.94,North,0,2.0,2.0,99,0.00,,,0.00,meteohub,2013-07-21 12:07:00,
2013-07-21 05:12:00,52.9,52.5,29.94,NE,45,2.0,2.0,99,0.00,,,0.00,meteohub,2013-07-21 12:12:00,
2013-07-21 05:17:00,53.1,52.7,29.94,NE,45,2.0,2.0,99,0.00,,,0.00,meteohub,2013-07-21 12:17:00,
2013-07-21 05:22:00,53.1,52.7,29.94,NE,45,3.0,3.0,99,0.00,,,0.00,meteohub,2013-07-21 12:22:00,
2013-07-21 05:27:00,52.9,52.5,29.94,NE,45,2.0,3.0,99,0.00,,,0.00,meteohub,2013-07-21 12:27:00,
2013-07-21 05:32:00,52.5,52.2,29.94,East,90,2.0,3.0,99,0.00,,,0.00,meteohub,2013-07-21 12:32:00,
2013-07-21 05:37:00,51.8,51.4,29.94,East,90,4.0,4.0,99,0.00,,,0.00,meteohub,2013-07-21 12:37:00,
2013-07-21 05:42:00,51.6,51.3,29.94,East,90,4.0,5.0,99,0.00,,,0.00,meteohub,2013-07-21 12:42:00,
2013-07-21 05:47:00,51.6,51.3,29.94,East,90,2.0,5.0,99,0.00,,,0.00,meteohub,2013-07-21 12:47:00,
2013-07-21 05:52:00,51.4,51.1,29.94,SE,135,2.0,5.0,99,0.00,,,0.00,meteohub,2013-07-21 12:52:00,
2013-07-21 05:57:00,51.3,50.9,29.94,SE,135,2.0,4.0,99,0.00,,,0.00,meteohub,2013-07-21 12:57:00,
2013-07-21 06:02:00,51.1,50.7,29.95,SE,135,2.0,2.0,99,0.00,,,0.00,meteohub,2013-07-21 13:02:00,
2013-07-21 06:07:00,50.7,50.2,29.95,NE,45,2.0,2.0,98,0.00,,,0.00,meteohub,2013-07-21 13:07:00,
2013-07-21 06:12:00,51.1,50.7,29.95,North,0,2.0,2.0,99,0.00,,,0.00,meteohub,2013-07-21 13:12:00,
2013-07-21 06:17:00,52.5,52.0,29.95,NE,45,1.0,2.0,98,0.00,,,0.00,meteohub,2013-07-21 13:17:00,
2013-07-21 06:22:00,54.0,52.5,29.95,NE,45,2.0,2.0,95,0.00,,,0.00,meteohub,2013-07-21 13:22:00,
2013-07-21 06:27:00,55.4,52.9,29.95,NE,45,2.0,2.0,91,0.00,,,0.00,meteohub,2013-07-21 13:27:00,
2013-07-21 06:32:00,57.2,53.1,29.95,NE,45,1.0,2.0,86,0.00,,,0.00,meteohub,2013-07-21 13:32:00,
2013-07-21 06:37:00,58.3,53.1,29.95,NE,45,0.0,2.0,83,0.00,,,0.00,meteohub,2013-07-21 13:37:00,
2013-07-21 06:42:00,59.0,53.6,29.95,East,90,1.0,2.0,82,0.00,,,0.00,meteohub,2013-07-21 13:42:00,
2013-07-21 06:47:00,59.9,53.4,29.95,South,180,1.0,2.0,79,0.00,,,0.00,meteohub,2013-07-21 13:47:00,
2013-07-21 06:52:00,60.6,52.3,29.95,South,180,2.0,2.0,74,0.00,,,0.00,meteohub,2013-07-21 13:52:00,
2013-07-21 06:57:00,60.3,52.3,29.95,South,180,2.0,2.0,75,0.00,,,0.00,meteohub,2013-07-21 13:57:00,
2013-07-21 07:02:00,59.9,52.3,29.95,SE,135,2.0,2.0,76,0.00,,,0.00,meteohub,2013-07-21 14:02:00,
2013-07-21 07:07:00,59.9,52.3,29.95,SE,135,1.0,2.0,76,0.00,,,0.00,meteohub,2013-07-21 14:07:00,
2013-07-21 07:12:00,60.1,52.2,29.96,East,90,2.0,2.0,75,0.00,,,0.00,meteohub,2013-07-21 14:12:00,
2013-07-21 07:17:00,60.3,52.3,29.95,East,90,2.0,2.0,75,0.00,,,0.00,meteohub,2013-07-21 14:17:00,
2013-07-21 07:22:00,60.4,52.9,29.95,East,90,2.0,2.0,76,0.00,,,0.00,meteohub,2013-07-21 14:22:00,
2013-07-21 07:27:00,60.6,53.1,29.95,East,90,4.0,4.0,76,0.00,,,0.00,meteohub,2013-07-21 14:27:00,
2013-07-21 07:32:00,60.4,53.6,29.95,SE,135,2.0,4.0,78,0.00,,,0.00,meteohub,2013-07-21 14:32:00,
2013-07-21 07:37:00,60.6,53.8,29.95,SE,135,6.0,6.0,78,0.00,,,0.00,meteohub,2013-07-21 14:37:00,
2013-07-21 07:42:00,59.5,53.8,29.95,South,180,6.0,6.0,81,0.00,,,0.00,meteohub,2013-07-21 14:42:00,
2013-07-21 07:47:00,59.5,54.0,29.95,South,180,6.0,7.0,82,0.00,,,0.00,meteohub,2013-07-21 14:47:00,
2013-07-21 07:52:00,59.4,54.1,29.95,South,180,7.0,7.0,83,0.00,,,0.00,meteohub,2013-07-21 14:52:00,
2013-07-21 07:57:00,59.4,54.5,29.95,South,180,7.0,8.0,84,0.00,,,0.00,meteohub,2013-07-21 14:57:00,
2013-07-21 08:02:00,59.2,55.0,29.95,SE,135,8.0,8.0,86,0.00,,,0.00,meteohub,2013-07-21 15:02:00,
2013-07-21 08:07:00,59.0,54.5,29.96,South,180,8.0,9.0,85,0.00,,,0.00,meteohub,2013-07-21 15:07:00,
2013-07-21 08:12:00,60.1,54.9,29.95,SE,135,7.0,9.0,83,0.00,,,0.00,meteohub,2013-07-21 15:12:00,
2013-07-21 08:17:00,60.6,55.0,29.95,South,180,7.0,9.0,82,0.00,,,0.00,meteohub,2013-07-21 15:17:00,
2013-07-21 08:22:00,60.8,55.2,29.95,South,180,7.0,9.0,82,0.00,,,0.00,meteohub,2013-07-21 15:22:00,
2013-07-21 08:27:00,61.0,55.4,29.96,ESE,113,7.0,7.0,82,0.00,,,0.00,meteohub,2013-07-21 15:27:00,
2013-07-21 08:32:00,61.3,55.4,29.95,South,180,6.0,7.0,81,0.00,,,0.00,meteohub,2013-07-21 15:32:00,
2013-07-21 08:37:00,61.3,55.8,29.96,SE,135,6.0,9.0,82,0.00,,,0.00,meteohub,2013-07-21 15:37:00,
2013-07-21 08:42:00,61.7,55.8,29.96,SE,135,5.0,9.0,81,0.00,,,0.00,meteohub,2013-07-21 15:42:00,
2013-07-21 08:47:00,61.7,55.8,29.96,SE,135,9.0,11.0,81,0.00,,,0.00,meteohub,2013-07-21 15:47:00,
2013-07-21 08:52:00,62.1,56.1,29.95,South,180,5.0,11.0,81,0.00,,,0.00,meteohub,2013-07-21 15:52:00,
2013-07-21 08:58:00,62.2,55.9,29.96,South,180,7.0,11.0,80,0.00,,,0.00,meteohub,2013-07-21 15:58:00,
2013-07-21 09:03:00,62.8,55.8,29.95,SE,135,10.0,10.0,78,0.00,,,0.00,meteohub,2013-07-21 16:03:00,
2013-07-21 09:08:00,62.4,56.1,29.95,SE,135,12.0,12.0,80,0.00,,,0.00,meteohub,2013-07-21 16:08:00,
2013-07-21 09:13:00,62.6,56.3,29.96,SE,135,11.0,15.0,80,0.00,,,0.00,meteohub,2013-07-21 16:13:00,
2013-07-21 09:18:00,62.8,56.1,29.96,SE,135,11.0,15.0,79,0.00,,,0.00,meteohub,2013-07-21 16:18:00,
2013-07-21 09:23:00,62.8,55.4,29.95,South,180,8.0,15.0,77,0.00,,,0.00,meteohub,2013-07-21 16:23:00,
2013-07-21 09:28:00,63.1,56.1,29.95,SW,225,8.0,11.0,78,0.00,,,0.00,meteohub,2013-07-21 16:28:00,
2013-07-21 09:33:00,63.7,55.9,29.95,South,180,7.0,11.0,76,0.00,,,0.00,meteohub,2013-07-21 16:33:00,
2013-07-21 09:38:00,64.4,56.3,29.95,South,180,4.0,10.0,75,0.00,,,0.00,meteohub,2013-07-21 16:38:00,
2013-07-21 09:43:00,65.5,56.7,29.95,SE,135,9.0,11.0,73,0.00,,,0.00,meteohub,2013-07-21 16:43:00,
2013-07-21 09:48:00,65.1,56.7,29.95,SE,135,8.0,13.0,74,0.00,,,0.00,meteohub,2013-07-21 16:48:00,
2013-07-21 09:53:00,65.1,55.9,29.95,SE,135,9.0,13.0,72,0.00,,,0.00,meteohub,2013-07-21 16:53:00,
2013-07-21 09:58:00,66.0,55.9,29.94,SE,135,7.0,13.0,70,0.00,,,0.00,meteohub,2013-07-21 16:58:00,
2013-07-21 10:03:00,67.1,57.0,29.94,South,180,4.0,9.0,70,0.00,,,0.00,meteohub,2013-07-21 17:03:00,
2013-07-21 10:08:00,68.4,57.4,29.94,South,180,4.0,9.0,68,0.00,,,0.00,meteohub,2013-07-21 17:08:00,
2013-07-21 10:13:00,68.9,57.0,29.94,South,180,5.0,8.0,66,0.00,,,0.00,meteohub,2013-07-21 17:13:00,
2013-07-21 10:18:00,68.7,57.4,29.94,SE,135,3.0,9.0,67,0.00,,,0.00,meteohub,2013-07-21 17:18:00,
2013-07-21 10:23:00,68.5,56.7,29.94,SE,135,6.0,9.0,66,0.00,,,0.00,meteohub,2013-07-21 17:23:00,
2013-07-21 10:28:00,68.5,56.3,29.94,SE,135,8.0,9.0,65,0.00,,,0.00,meteohub,2013-07-21 17:28:00,
2013-07-21 10:33:00,68.7,56.5,29.94,South,180,2.0,9.0,65,0.00,,,0.00,meteohub,2013-07-21 17:33:00,
2013-07-21 10:38:00,68.7,56.5,29.94,South,180,7.0,8.0,65,0.00,,,0.00,meteohub,2013-07-21 17:38:00,
2013-07-21 10:43:00,69.3,56.5,29.94,SE,135,15.0,15.0,64,0.00,,,0.00,meteohub,2013-07-21 17:43:00,
2013-07-21 10:48:00,68.4,56.5,29.94,SE,135,11.0,15.0,66,0.00,,,0.00,meteohub,2013-07-21 17:48:00,
2013-07-21 10:53:00,68.7,56.5,29.93,SE,135,12.0,15.0,65,0.00,,,0.00,meteohub,2013-07-21 17:53:00,
2013-07-21 10:58:00,68.7,56.1,29.94,SE,135,11.0,15.0,64,0.00,,,0.00,meteohub,2013-07-21 17:58:00,
2013-07-21 11:03:00,68.9,57.0,29.94,South,180,11.0,13.0,66,0.00,,,0.00,meteohub,2013-07-21 18:03:00,
2013-07-21 11:08:00,69.4,57.2,29.93,SE,135,14.0,14.0,65,0.00,,,0.00,meteohub,2013-07-21 18:08:00,
2013-07-21 11:13:00,69.6,56.8,29.93,SE,135,13.0,14.0,64,0.00,,,0.00,meteohub,2013-07-21 18:13:00,
2013-07-21 11:18:00,70.2,57.4,29.93,South,180,11.0,14.0,64,0.00,,,0.00,meteohub,2013-07-21 18:18:00,
2013-07-21 11:23:00,71.4,56.8,29.93,SW,225,9.0,14.0,60,0.00,,,0.00,meteohub,2013-07-21 18:23:00,
2013-07-21 11:28:00,71.6,57.0,29.93,SE,135,8.0,14.0,60,0.00,,,0.00,meteohub,2013-07-21 18:28:00,
2013-07-21 11:33:00,71.6,57.0,29.93,SE,135,13.0,13.0,60,0.00,,,0.00,meteohub,2013-07-21 18:33:00,
2013-07-21 11:38:00,71.8,56.7,29.93,South,180,11.0,13.0,59,0.00,,,0.00,meteohub,2013-07-21 18:38:00,
2013-07-21 11:43:00,72.0,55.9,29.93,SE,135,9.0,13.0,57,0.00,,,0.00,meteohub,2013-07-21 18:43:00,
2013-07-21 11:48:00,72.3,56.3,29.92,South,180,9.0,15.0,57,0.00,,,0.00,meteohub,2013-07-21 18:48:00,
2013-07-21 11:53:00,72.7,55.6,29.93,SE,135,11.0,15.0,55,0.00,,,0.00,meteohub,2013-07-21 18:53:00,
2013-07-21 11:58:00,72.7,55.6,29.92,SE,135,8.0,15.0,55,0.00,,,0.00,meteohub,2013-07-21 18:58:00,
2013-07-21 12:03:00,72.9,53.6,29.93,South,180,11.0,13.0,51,0.00,,,0.00,meteohub,2013-07-21 19:03:00,
2013-07-21 12:08:00,73.0,54.9,29.92,South,180,14.0,14.0,53,0.00,,,0.00,meteohub,2013-07-21 19:08:00,
2013-07-21 12:13:00,73.8,54.5,29.92,South,180,13.0,14.0,51,0.00,,,0.00,meteohub,2013-07-21 19:13:00,
2013-07-21 12:18:00,73.9,55.2,29.92,South,180,11.0,14.0,52,0.00,,,0.00,meteohub,2013-07-21 19:18:00,
2013-07-21 12:23:00,74.7,56.5,29.92,SE,135,11.0,14.0,53,0.00,,,0.00,meteohub,2013-07-21 19:23:00,
2013-07-21 12:28:00,75.2,56.3,29.91,SE,135,13.0,14.0,52,0.00,,,0.00,meteohub,2013-07-21 19:28:00,
2013-07-21 12:33:00,75.0,56.7,29.92,SE,135,11.0,15.0,53,0.00,,,0.00,meteohub,2013-07-21 19:33:00,
2013-07-21 12:38:00,75.6,57.2,29.91,SE,135,9.0,15.0,53,0.00,,,0.00,meteohub,2013-07-21 19:38:00,
2013-07-21 12:43:00,76.3,56.8,29.91,ENE,68,6.0,15.0,51,0.00,,,0.00,meteohub,2013-07-21 19:43:00,
2013-07-21 12:48:00,77.4,57.2,29.91,SE,135,11.0,15.0,50,0.00,,,0.00,meteohub,2013-07-21 19:48:00,
2013-07-21 12:53:00,76.8,57.4,29.91,SE,135,11.0,13.0,51,0.00,,,0.00,meteohub,2013-07-21 19:53:00,
2013-07-21 12:58:00,76.3,56.8,29.91,SE,135,14.0,15.0,51,0.00,,,0.00,meteohub,2013-07-21 19:58:00,
2013-07-21 13:03:00,76.8,57.4,29.91,SE,135,13.0,15.0,51,0.00,,,0.00,meteohub,2013-07-21 20:03:00,
2013-07-21 13:08:00,77.4,57.7,29.90,SE,135,8.0,15.0,51,0.00,,,0.00,meteohub,2013-07-21 20:08:00,
2013-07-21 13:13:00,78.1,57.4,29.90,South,180,11.0,15.0,49,0.00,,,0.00,meteohub,2013-07-21 20:13:00,
2013-07-21 13:18:00,77.7,57.6,29.90,SE,135,11.0,16.0,50,0.00,,,0.00,meteohub,2013-07-21 20:18:00,
2013-07-21 13:23:00,78.1,57.4,29.90,South,180,11.0,16.0,49,0.00,,,0.00,meteohub,2013-07-21 20:23:00,
2013-07-21 13:28:00,78.1,58.5,29.90,SE,135,12.0,16.0,51,0.00,,,0.00,meteohub,2013-07-21 20:28:00,
2013-07-21 13:33:00,77.9,57.2,29.90,South,180,17.0,17.0,49,0.00,,,0.00,meteohub,2013-07-21 20:33:00,
2013-07-21 13:38:00,78.1,58.5,29.90,South,180,14.0,17.0,51,0.00,,,0.00,meteohub,2013-07-21 20:38:00,
2013-07-21 13:43:00,78.6,59.0,29.90,SE,135,15.0,17.0,51,0.00,,,0.00,meteohub,2013-07-21 20:43:00,
2013-07-21 13:48:00,78.6,59.5,29.89,South,180,9.0,17.0,52,0.00,,,0.00,meteohub,2013-07-21 20:48:00,
2013-07-21 13:53:00,79.5,59.7,29.90,South,180,8.0,17.0,51,0.00,,,0.00,meteohub,2013-07-21 20:53:00,
2013-07-21 13:58:00,79.5,60.4,29.89,South,180,9.0,17.0,52,0.00,,,0.00,meteohub,2013-07-21 20:58:00,
2013-07-21 14:03:00,79.7,58.8,29.89,SE,135,8.0,17.0,49,0.00,,,0.00,meteohub,2013-07-21 21:03:00,
2013-07-21 14:08:00,79.7,58.8,29.89,SSE,158,9.0,13.0,49,0.00,,,0.00,meteohub,2013-07-21 21:08:00,
2013-07-21 14:13:00,80.1,59.2,29.89,South,180,6.0,13.0,49,0.00,,,0.00,meteohub,2013-07-21 21:13:00,
2013-07-21 14:18:00,80.4,59.5,29.89,SE,135,9.0,13.0,49,0.00,,,0.00,meteohub,2013-07-21 21:18:00,
2013-07-21 14:23:00,80.4,59.5,29.89,SE,135,9.0,13.0,49,0.00,,,0.00,meteohub,2013-07-21 21:23:00,
2013-07-21 14:28:00,81.0,59.4,29.89,SE,135,6.0,15.0,48,0.00,,,0.00,meteohub,2013-07-21 21:28:00,
2013-07-21 14:33:00,81.5,59.4,29.88,SE,135,11.0,15.0,47,0.00,,,0.00,meteohub,2013-07-21 21:33:00,
2013-07-21 14:38:00,81.3,57.9,29.89,South,180,12.0,15.0,45,0.00,,,0.00,meteohub,2013-07-21 21:38:00,
2013-07-21 14:43:00,81.5,59.4,29.89,South,180,4.0,15.0,47,0.00,,,0.00,meteohub,2013-07-21 21:43:00,
2013-07-21 14:48:00,81.7,58.8,29.88,South,180,14.0,15.0,46,0.00,,,0.00,meteohub,2013-07-21 21:48:00,
2013-07-21 14:53:00,81.3,59.2,29.89,SE,135,11.0,15.0,47,0.00,,,0.00,meteohub,2013-07-21 21:53:00,
2013-07-21 14:58:00,81.7,58.3,29.88,South,180,16.0,16.0,45,0.00,,,0.00,meteohub,2013-07-21 21:58:00,
2013-07-21 15:03:00,82.8,59.2,29.88,SE,135,10.0,16.0,45,0.00,,,0.00,meteohub,2013-07-21 22:03:00,
2013-07-21 15:08:00,82.9,58.8,29.88,ESE,113,13.0,16.0,44,0.00,,,0.00,meteohub,2013-07-21 22:08:00,
2013-07-21 15:13:00,82.8,59.9,29.88,SSE,158,15.0,16.0,46,0.00,,,0.00,meteohub,2013-07-21 22:13:00,
2013-07-21 15:18:00,83.1,59.5,29.88,South,180,8.0,15.0,45,0.00,,,0.00,meteohub,2013-07-21 22:18:00,
2013-07-21 15:23:00,82.8,57.9,29.88,SE,135,15.0,16.0,43,0.00,,,0.00,meteohub,2013-07-21 22:23:00,
2013-07-21 15:28:00,82.6,59.7,29.87,South,180,14.0,16.0,46,0.00,,,0.00,meteohub,2013-07-21 22:28:00,
2013-07-21 15:33:00,82.6,59.0,29.87,South,180,13.0,19.0,45,0.00,,,0.00,meteohub,2013-07-21 22:33:00,
2013-07-21 15:38:00,82.8,59.2,29.87,South,180,11.0,19.0,45,0.00,,,0.00,meteohub,2013-07-21 22:38:00,
2013-07-21 15:43:00,83.1,59.5,29.87,SE,135,14.0,19.0,45,0.00,,,0.00,meteohub,2013-07-21 22:43:00,
2013-07-21 15:48:00,83.1,59.5,29.87,SE,135,9.0,17.0,45,0.00,,,0.00,meteohub,2013-07-21 22:48:00,
2013-07-21 15:53:00,83.7,59.4,29.87,SE,135,13.0,17.0,44,0.00,,,0.00,meteohub,2013-07-21 22:53:00,
2013-07-21 15:58:00,83.1,59.0,29.87,South,180,13.0,17.0,44,0.00,,,0.00,meteohub,2013-07-21 22:58:00,
2013-07-21 16:03:00,83.7,59.4,29.86,SE,135,14.0,17.0,44,0.00,,,0.00,meteohub,2013-07-21 23:03:00,
2013-07-21 16:08:00,83.3,58.5,29.86,SE,135,16.0,17.0,43,0.00,,,0.00,meteohub,2013-07-21 23:08:00,
2013-07-21 16:13:00,83.8,58.3,29.86,SE,135,15.0,17.0,42,0.00,,,0.00,meteohub,2013-07-21 23:13:00,
2013-07-21 16:18:00,84.0,57.7,29.86,SE,135,11.0,17.0,41,0.00,,,0.00,meteohub,2013-07-21 23:18:00,
2013-07-21 16:23:00,83.7,58.1,29.86,South,180,12.0,16.0,42,0.00,,,0.00,meteohub,2013-07-21 23:23:00,
2013-07-21 16:28:00,84.6,56.8,29.86,SSE,158,15.0,18.0,39,0.00,,,0.00,meteohub,2013-07-21 23:28:00,
2013-07-21 16:33:00,84.2,57.2,29.86,SW,225,14.0,18.0,40,0.00,,,0.00,meteohub,2013-07-21 23:33:00,
2013-07-21 16:38:00,84.0,57.0,29.86,South,180,15.0,18.0,40,0.00,,,0.00,meteohub,2013-07-21 23:38:00,
2013-07-21 16:43:00,84.9,57.9,29.86,SE,135,13.0,21.0,40,0.00,,,0.00,meteohub,2013-07-21 23:43:00,
2013-07-21 16:48:00,85.1,59.4,29.86,SE,135,17.0,21.0,42,0.00,,,0.00,meteohub,2013-07-21 23:48:00,
2013-07-21 16:53:00,84.6,59.0,29.85,SE,135,13.0,17.0,42,0.00,,,0.00,meteohub,2013-07-21 23:53:00,
2013-07-21 16:58:00,84.7,59.7,29.85,South,180,11.0,18.0,43,0.00,,,0.00,meteohub,2013-07-21 23:58:00,
2013-07-21 17:03:00,84.4,58.1,29.85,SE,135,15.0,18.0,41,0.00,,,0.00,meteohub,2013-07-22 00:03:00,
2013-07-21 17:08:00,84.9,58.6,29.85,SE,135,17.0,19.0,41,0.00,,,0.00,meteohub,2013-07-22 00:08:00,
2013-07-21 17:14:00,84.7,59.2,29.85,SSE,158,10.0,19.0,42,0.00,,,0.00,meteohub,2013-07-22 00:14:00,
2013-07-21 17:19:00,84.6,57.6,29.85,South,180,16.0,19.0,40,0.00,,,0.00,meteohub,2013-07-22 00:19:00,
2013-07-21 17:24:00,84.9,58.6,29.85,South,180,12.0,17.0,41,0.00,,,0.00,meteohub,2013-07-22 00:24:00,
2013-07-21 17:29:00,85.1,58.1,29.84,SE,135,15.0,17.0,40,0.00,,,0.00,meteohub,2013-07-22 00:29:00,
2013-07-21 17:34:00,85.1,58.8,29.85,SE,135,13.0,17.0,41,0.00,,,0.00,meteohub,2013-07-22 00:34:00,
2013-07-21 17:39:00,85.3,58.3,29.85,South,180,12.0,15.0,40,0.00,,,0.00,meteohub,2013-07-22 00:39:00,
2013-07-21 17:44:00,86.0,55.2,29.84,South,180,15.0,15.0,35,0.00,,,0.00,meteohub,2013-07-22 00:44:00,
2013-07-21 17:49:00,85.3,54.5,29.84,South,180,15.0,15.0,35,0.00,,,0.00,meteohub,2013-07-22 00:49:00,
2013-07-21 17:54:00,85.5,55.4,29.84,SE,135,18.0,18.0,36,0.00,,,0.00,meteohub,2013-07-22 00:54:00,
2013-07-21 17:59:00,84.9,54.1,29.84,South,180,15.0,17.0,35,0.00,,,0.00,meteohub,2013-07-22 00:59:00,
2013-07-21 18:04:00,84.9,55.8,29.84,South,180,11.0,18.0,37,0.00,,,0.00,meteohub,2013-07-22 01:04:00,
2013-07-21 18:09:00,85.3,55.2,29.83,SW,225,12.0,18.0,36,0.00,,,0.00,meteohub,2013-07-22 01:09:00,
2013-07-21 18:14:00,85.1,54.3,29.84,South,180,19.0,19.0,35,0.00,,,0.00,meteohub,2013-07-22 01:14:00,
2013-07-21 18:19:00,84.7,55.6,29.84,South,180,12.0,21.0,37,0.00,,,0.00,meteohub,2013-07-22 01:19:00,
2013-07-21 18:24:00,84.7,55.6,29.84,South,180,17.0,21.0,37,0.00,,,0.00,meteohub,2013-07-22 01:24:00,
2013-07-21 18:29:00,84.4,56.7,29.84,South,180,18.0,21.0,39,0.00,,,0.00,meteohub,2013-07-22 01:29:00,
2013-07-21 18:34:00,84.7,57.7,29.84,SSE,158,15.0,19.0,40,0.00,,,0.00,meteohub,2013-07-22 01:34:00,
2013-07-21 18:39:00,84.7,58.5,29.84,South,180,14.0,19.0,41,0.00,,,0.00,meteohub,2013-07-22 01:39:00,
2013-07-21 18:44:00,84.4,58.8,29.84,South,180,15.0,19.0,42,0.00,,,0.00,meteohub,2013-07-22 01:44:00,
2013-07-21 18:49:00,84.6,59.5,29.84,SE,135,13.0,17.0,43,0.00,,,0.00,meteohub,2013-07-22 01:49:00,
2013-07-21 18:54:00,84.0,59.2,29.83,SE,135,14.0,17.0,43,0.00,,,0.00,meteohub,2013-07-22 01:54:00,
2013-07-21 18:59:00,84.2,59.9,29.84,SW,225,11.0,17.0,44,0.00,,,0.00,meteohub,2013-07-22 01:59:00,
2013-07-21 19:04:00,84.4,59.4,29.84,South,180,16.0,16.0,43,0.00,,,0.00,meteohub,2013-07-22 02:04:00,
2013-07-21 19:09:00,83.8,59.5,29.84,SSE,158,15.0,15.0,44,0.00,,,0.00,meteohub,2013-07-22 02:09:00,
2013-07-21 19:14:00,83.8,59.5,29.84,South,180,14.0,16.0,44,0.00,,,0.00,meteohub,2013-07-22 02:14:00,
2013-07-21 19:19:00,83.7,59.4,29.84,South,180,12.0,16.0,44,0.00,,,0.00,meteohub,2013-07-22 02:19:00,
2013-07-21 19:24:00,83.7,59.4,29.84,South,180,12.0,15.0,44,0.00,,,0.00,meteohub,2013-07-22 02:24:00,
2013-07-21 19:29:00,83.3,59.7,29.84,South,180,12.0,15.0,45,0.00,,,0.00,meteohub,2013-07-22 02:29:00,
2013-07-21 19:34:00,83.5,59.9,29.84,SE,135,9.0,15.0,45,0.00,,,0.00,meteohub,2013-07-22 02:34:00,
2013-07-21 19:39:00,83.5,59.9,29.84,South,180,13.0,15.0,45,0.00,,,0.00,meteohub,2013-07-22 02:39:00,
2013-07-21 19:44:00,83.5,59.9,29.84,South,180,9.0,14.0,45,0.00,,,0.00,meteohub,2013-07-22 02:44:00,
2013-07-21 19:49:00,83.7,60.6,29.84,South,180,10.0,14.0,46,0.00,,,0.00,meteohub,2013-07-22 02:49:00,
2013-07-21 19:54:00,83.3,60.4,29.84,SE,135,9.0,13.0,46,0.00,,,0.00,meteohub,2013-07-22 02:54:00,
2013-07-21 19:59:00,82.8,59.9,29.85,South,180,10.0,13.0,46,0.00,,,0.00,meteohub,2013-07-22 02:59:00,
2013-07-21 20:04:00,82.6,59.7,29.85,South,180,10.0,14.0,46,0.00,,,0.00,meteohub,2013-07-22 03:04:00,
2013-07-21 20:09:00,82.6,59.7,29.84,South,180,9.0,14.0,46,0.00,,,0.00,meteohub,2013-07-22 03:09:00,
2013-07-21 20:14:00,82.0,59.9,29.84,South,180,8.0,14.0,47,0.00,,,0.00,meteohub,2013-07-22 03:14:00,
2013-07-21 20:19:00,81.7,59.5,29.85,SE,135,10.0,12.0,47,0.00,,,0.00,meteohub,2013-07-22 03:19:00,
2013-07-21 20:24:00,81.3,59.7,29.84,South,180,8.0,11.0,48,0.00,,,0.00,meteohub,2013-07-22 03:24:00,
2013-07-21 20:29:00,81.0,59.4,29.85,South,180,6.0,11.0,48,0.00,,,0.00,meteohub,2013-07-22 03:29:00,
2013-07-21 20:34:00,80.8,59.9,29.85,South,180,6.0,11.0,49,0.00,,,0.00,meteohub,2013-07-22 03:34:00,
2013-07-21 20:39:00,80.4,59.5,29.85,South,180,5.0,10.0,49,0.00,,,0.00,meteohub,2013-07-22 03:39:00,
2013-07-21 20:44:00,80.1,59.7,29.85,South,180,4.0,8.0,50,0.00,,,0.00,meteohub,2013-07-22 03:44:00,
2013-07-21 20:49:00,79.5,59.7,29.85,SE,135,4.0,7.0,51,0.00,,,0.00,meteohub,2013-07-22 03:49:00,
2013-07-21 20:54:00,78.8,59.7,29.85,SE,135,4.0,7.0,52,0.00,,,0.00,meteohub,2013-07-22 03:54:00,
2013-07-21 20:59:00,78.3,59.7,29.85,SE,135,4.0,6.0,53,0.00,,,0.00,meteohub,2013-07-22 03:59:00,
2013-07-21 21:01:00,78.1,59.5,29.85,SE,135,4.0,5.0,53,0.00,,,0.00,meteohub,2013-07-22 04:01:00,
2013-07-21 21:02:00,78.1,59.5,29.85,SE,135,4.0,5.0,53,0.00,,,0.00,meteohub,2013-07-22 04:02:00,
2013-07-21 21:07:00,77.2,59.2,29.86,SE,135,4.0,5.0,54,0.00,,,0.00,meteohub,2013-07-22 04:07:00,
2013-07-21 21:12:00,76.5,59.5,29.86,SE,135,4.0,5.0,56,0.00,,,0.00,meteohub,2013-07-22 04:12:00,
2013-07-21 21:17:00,75.7,59.4,29.86,SE,135,4.0,4.0,57,0.00,,,0.00,meteohub,2013-07-22 04:17:00,
2013-07-21 21:22:00,75.2,59.4,29.86,SE,135,5.0,5.0,58,0.00,,,0.00,meteohub,2013-07-22 04:22:00,
2013-07-21 21:27:00,74.8,59.0,29.86,SE,135,4.0,5.0,58,0.00,,,0.00,meteohub,2013-07-22 04:27:00,
2013-07-21 21:32:00,74.5,59.2,29.86,SE,135,5.0,5.0,59,0.00,,,0.00,meteohub,2013-07-22 04:32:00,
2013-07-21 21:37:00,74.5,59.2,29.86,SE,135,8.0,8.0,59,0.00,,,0.00,meteohub,2013-07-22 04:37:00,
2013-07-21 21:42:00,73.9,59.2,29.87,East,90,7.0,8.0,60,0.00,,,0.00,meteohub,2013-07-22 04:42:00,
2013-07-21 21:47:00,73.9,59.7,29.86,ESE,113,6.0,8.0,61,0.00,,,0.00,meteohub,2013-07-22 04:47:00,
2013-07-21 21:52:00,73.8,59.5,29.86,East,90,5.0,8.0,61,0.00,,,0.00,meteohub,2013-07-22 04:52:00,
2013-07-21 21:57:00,73.4,60.1,29.87,East,90,6.0,7.0,63,0.00,,,0.00,meteohub,2013-07-22 04:57:00,
2013-07-21 22:02:00,72.9,59.9,29.87,East,90,7.0,7.0,64,0.00,,,0.00,meteohub,2013-07-22 05:02:00,
2013-07-21 22:07:00,72.5,60.1,29.87,SE,135,8.0,8.0,65,0.00,,,0.00,meteohub,2013-07-22 05:07:00,
2013-07-21 22:12:00,71.8,60.3,29.87,SE,135,7.0,8.0,67,0.00,,,0.00,meteohub,2013-07-22 05:12:00,
2013-07-21 22:17:00,71.2,60.1,29.87,ESE,113,6.0,8.0,68,0.00,,,0.00,meteohub,2013-07-22 05:17:00,
2013-07-21 22:21:00,70.9,60.3,29.87,ESE,113,6.0,8.0,69,0.00,,,0.00,meteohub,2013-07-22 05:21:00,
2013-07-21 22:26:00,70.3,59.7,29.87,East,90,6.0,7.0,69,0.00,,,0.00,meteohub,2013-07-22 05:26:00,
2013-07-21 22:31:00,70.2,59.9,29.87,East,90,4.0,7.0,70,0.00,,,0.00,meteohub,2013-07-22 05:31:00,
2013-07-21 22:36:00,69.8,59.5,29.87,East,90,4.0,7.0,70,0.00,,,0.00,meteohub,2013-07-22 05:36:00,
2013-07-21 22:41:00,69.4,59.5,29.87,East,90,2.0,7.0,71,0.00,,,0.00,meteohub,2013-07-22 05:41:00,
2013-07-21 22:46:00,69.1,59.7,29.88,East,90,2.0,7.0,72,0.00,,,0.00,meteohub,2013-07-22 05:46:00,
2013-07-21 22:51:00,68.9,59.9,29.87,East,90,5.0,5.0,73,0.00,,,0.00,meteohub,2013-07-22 05:51:00,
2013-07-21 22:57:00,68.9,59.5,29.87,East,90,4.0,5.0,72,0.00,,,0.00,meteohub,2013-07-22 05:57:00,
2013-07-21 23:02:00,68.9,59.5,29.87,East,90,3.0,5.0,72,0.00,,,0.00,meteohub,2013-07-22 06:02:00,
2013-07-21 23:07:00,68.5,59.9,29.88,East,90,4.0,5.0,74,0.00,,,0.00,meteohub,2013-07-22 06:07:00,
2013-07-21 23:11:00,68.5,59.9,29.88,East,90,5.0,5.0,74,0.00,,,0.00,meteohub,2013-07-22 06:11:00,
2013-07-21 23:17:00,68.4,59.7,29.88,East,90,6.0,6.0,74,0.00,,,0.00,meteohub,2013-07-22 06:17:00,
2013-07-21 23:22:00,68.0,59.4,29.88,East,90,4.0,7.0,74,0.00,,,0.00,meteohub,2013-07-22 06:22:00,
2013-07-21 23:27:00,67.6,59.4,29.88,East,90,2.0,7.0,75,0.00,,,0.00,meteohub,2013-07-22 06:27:00,
2013-07-21 23:32:00,67.3,59.0,29.88,East,90,3.0,6.0,75,0.00,,,0.00,meteohub,2013-07-22 06:32:00,
2013-07-21 23:36:00,67.3,59.0,29.88,SE,135,2.0,4.0,75,0.00,,,0.00,meteohub,2013-07-22 06:36:00,
2013-07-21 23:41:00,67.1,58.8,29.88,SE,135,5.0,5.0,75,0.00,,,0.00,meteohub,2013-07-22 06:41:00,
2013-07-21 23:46:00,66.6,58.5,29.88,East,90,2.0,5.0,75,0.00,,,0.00,meteohub,2013-07-22 06:46:00,
2013-07-21 23:51:00,66.0,58.3,29.89,North,0,2.0,5.0,76,0.00,,,0.00,meteohub,2013-07-22 06:51:00,
2013-07-21 23:56:00,65.8,58.8,29.89,North,0,2.0,5.0,78,0.00,,,0.00,meteohub,2013-07-22 06:56:00,